owner,sensor,date,latitude,longitude,vertical_datum,wind_speed,wind_to_direction,wind_speed_of_gust,qcFlag 
COMPS,ioos:station:USF.COMPS:SHP:1,2015-07-01T03:00:00Z,30.0600,-84.2910,10.0,2.37,280.18,3.43,'1111122,1111122,1111122' 
COMPS,ioos:station:USF.COMPS:SHP:1,2015-07-01T03:06:00Z,30.0600,-84.2910,10.0,2.06,280.54,3.43,'1111122,1111122,1111122' 
COMPS,ioos:station:USF.COMPS:SHP:1,2015-07-01T03:12:00Z,30.0600,-84.2910,10.0,2.03,293.31,3.13,'1111122,1111122,1111122' 
COMPS,ioos:station:USF.COMPS:SHP:1,2015-07-01T03:18:00Z,30.0600,-84.2910,10.0,1.91,286.65,3.03,'1111122,1111122,1111122' 
COMPS,ioos:station:USF.COMPS:SHP:1,2015-07-01T03:24:00Z,30.0600,-84.2910,10.0,2.09,289.54,3.03,'1111122,1111122,1111122' 
COMPS,ioos:station:USF.COMPS:SHP:1,2015-07-01T03:30:00Z,30.0600,-84.2910,10.0,2.35,311.19,3.23,'1111122,1111122,1111122' 
COMPS,ioos:station:USF.COMPS:SHP:1,2015-07-01T03:36:00Z,30.0600,-84.2910,10.0,2.24,313.43,3.43,'1111122,1111122,1111122' 
COMPS,ioos:station:USF.COMPS:SHP:1,2015-07-01T03:42:00Z,30.0600,-84.2910,10.0,2.03,315.19,2.94,'1111122,1111122,1111122' 
COMPS,ioos:station:USF.COMPS:SHP:1,2015-07-01T03:48:00Z,30.0600,-84.2910,10.0,1.86,317.09,2.64,'1111122,1111122,1111122' 
COMPS,ioos:station:USF.COMPS:SHP:1,2015-07-01T03:54:00Z,30.0600,-84.2910,10.0,1.66,323.34,2.25,'1111122,1111122,1111122' 
COMPS,ioos:station:USF.COMPS:SHP:1,2015-07-01T04:00:00Z,30.0600,-84.2910,10.0,2.05,340.96,2.54,'1111122,1111122,1111122' 
COMPS,ioos:station:USF.COMPS:SHP:1,2015-07-01T04:06:00Z,30.0600,-84.2910,10.0,2.19,337.74,2.74,'1111122,1111122,1111122' 
COMPS,ioos:station:USF.COMPS:SHP:1,2015-07-01T04:12:00Z,30.0600,-84.2910,10.0,1.8,4.17,2.45,'1111122,1111122,1111122' 
COMPS,ioos:station:USF.COMPS:SHP:1,2015-07-01T04:18:00Z,30.0600,-84.2910,10.0,1.83,20.99,2.74,'1111122,1111122,1111122' 
COMPS,ioos:station:USF.COMPS:SHP:1,2015-07-01T04:24:00Z,30.0600,-84.2910,10.0,1.61,28.47,2.25,'1111122,1111122,1111122' 
COMPS,ioos:station:USF.COMPS:SHP:1,2015-07-01T04:30:00Z,30.0600,-84.2910,10.0,1.9,24.3,2.74,'1111122,1111122,1111122' 
COMPS,ioos:station:USF.COMPS:SHP:1,2015-07-01T04:36:00Z,30.0600,-84.2910,10.0,1.64,26.73,2.35,'1111122,1111122,1111122' 
COMPS,ioos:station:USF.COMPS:SHP:1,2015-07-01T04:42:00Z,30.0600,-84.2910,10.0,1.22,24.52,1.86,'1111122,1111122,1111122' 
COMPS,ioos:station:USF.COMPS:SHP:1,2015-07-01T04:48:00Z,30.0600,-84.2910,10.0,1.33,27.36,2.05,'1111122,1111122,1111122' 
COMPS,ioos:station:USF.COMPS:SHP:1,2015-07-01T04:54:00Z,30.0600,-84.2910,10.0,1.2,13.35,1.86,'1111122,1111122,1111122' 
COMPS,ioos:station:USF.COMPS:SHP:1,2015-07-01T05:00:00Z,30.0600,-84.2910,10.0,1.35,5.94,1.96,'1111122,1111122,1111122' 
COMPS,ioos:station:USF.COMPS:SHP:1,2015-07-01T05:06:00Z,30.0600,-84.2910,10.0,0.64,19.66,1.37,'1111122,1111122,1111122' 
COMPS,ioos:station:USF.COMPS:SHP:1,2015-07-01T05:12:00Z,30.0600,-84.2910,10.0,0.1,325.68,0.19,'1111122,1111122,1111122' 
COMPS,ioos:station:USF.COMPS:SHP:1,2015-07-01T05:18:00Z,30.0600,-84.2910,10.0,0.54,320.85,1.27,'1111122,1111122,1111122' 
COMPS,ioos:station:USF.COMPS:SHP:1,2015-07-01T05:24:00Z,30.0600,-84.2910,10.0,0.76,342.56,1.07,'1111122,1111122,1111122' 
COMPS,ioos:station:USF.COMPS:SHP:1,2015-07-01T05:30:00Z,30.0600,-84.2910,10.0,1.03,301.44,1.56,'1111122,1111122,1111122' 
COMPS,ioos:station:USF.COMPS:SHP:1,2015-07-01T05:36:00Z,30.0600,-84.2910,10.0,1.26,279.59,1.76,'1111122,1111122,1111122' 
COMPS,ioos:station:USF.COMPS:SHP:1,2015-07-01T05:42:00Z,30.0600,-84.2910,10.0,1.86,269.03,2.45,'1111122,1111122,1111122' 
COMPS,ioos:station:USF.COMPS:SHP:1,2015-07-01T05:48:00Z,30.0600,-84.2910,10.0,2.0,265.25,2.74,'1111122,1111122,1111122' 
COMPS,ioos:station:USF.COMPS:SHP:1,2015-07-01T05:54:00Z,30.0600,-84.2910,10.0,2.01,248.49,2.74,'1111122,1111122,1111122' 
COMPS,ioos:station:USF.COMPS:SHP:1,2015-07-01T06:00:00Z,30.0600,-84.2910,10.0,1.73,274.22,2.64,'1111122,1111122,1111122' 
COMPS,ioos:station:USF.COMPS:SHP:1,2015-07-01T06:06:00Z,30.0600,-84.2910,10.0,2.25,273.33,3.62,'1111122,1111122,1111122' 
COMPS,ioos:station:USF.COMPS:SHP:1,2015-07-01T06:12:00Z,30.0600,-84.2910,10.0,2.72,259.26,3.82,'1111122,1111122,1111122' 
COMPS,ioos:station:USF.COMPS:SHP:1,2015-07-01T06:18:00Z,30.0600,-84.2910,10.0,2.45,257.05,3.72,'1111122,1111122,1111122' 
COMPS,ioos:station:USF.COMPS:SHP:1,2015-07-01T06:24:00Z,30.0600,-84.2910,10.0,2.04,245.81,3.33,'1111122,1111122,1111122' 
COMPS,ioos:station:USF.COMPS:SHP:1,2015-07-01T06:30:00Z,30.0600,-84.2910,10.0,2.52,251.28,3.43,'1111122,1111122,1111122' 
COMPS,ioos:station:USF.COMPS:SHP:1,2015-07-01T06:36:00Z,30.0600,-84.2910,10.0,2.96,249.35,3.82,'1111122,1111122,1111122' 
COMPS,ioos:station:USF.COMPS:SHP:1,2015-07-01T06:42:00Z,30.0600,-84.2910,10.0,3.09,255.8,3.82,'1111122,1111122,1111122' 
COMPS,ioos:station:USF.COMPS:SHP:1,2015-07-01T06:48:00Z,30.0600,-84.2910,10.0,2.9,259.4,3.62,'1111122,1111122,1111122' 
COMPS,ioos:station:USF.COMPS:SHP:1,2015-07-01T06:54:00Z,30.0600,-84.2910,10.0,2.49,272.2,3.03,'1111122,1111122,1111122' 
COMPS,ioos:station:USF.COMPS:SHP:1,2015-07-01T07:00:00Z,30.0600,-84.2910,10.0,2.42,265.04,3.43,'1111122,1111122,1111122' 
COMPS,ioos:station:USF.COMPS:SHP:1,2015-07-01T07:06:00Z,30.0600,-84.2910,10.0,2.49,269.98,3.82,'1111122,1111122,1111122' 
COMPS,ioos:station:USF.COMPS:SHP:1,2015-07-01T07:12:00Z,30.0600,-84.2910,10.0,2.42,260.41,3.33,'1111122,1111122,1111122' 
COMPS,ioos:station:USF.COMPS:SHP:1,2015-07-01T07:18:00Z,30.0600,-84.2910,10.0,3.17,255.8,3.82,'1111122,1111122,1111122' 
COMPS,ioos:station:USF.COMPS:SHP:1,2015-07-01T07:24:00Z,30.0600,-84.2910,10.0,3.2,255.28,3.72,'1111122,1111122,1111122' 
COMPS,ioos:station:USF.COMPS:SHP:1,2015-07-01T07:30:00Z,30.0600,-84.2910,10.0,2.81,256.82,3.72,'1111122,1111122,1111122' 
COMPS,ioos:station:USF.COMPS:SHP:1,2015-07-01T07:36:00Z,30.0600,-84.2910,10.0,3.01,253.44,3.62,'1111122,1111122,1111122' 
COMPS,ioos:station:USF.COMPS:SHP:1,2015-07-01T07:42:00Z,30.0600,-84.2910,10.0,3.25,250.63,4.11,'1111122,1111122,1111122' 
COMPS,ioos:station:USF.COMPS:SHP:1,2015-07-01T07:48:00Z,30.0600,-84.2910,10.0,3.41,250.24,4.01,'1111122,1111122,1111122' 
COMPS,ioos:station:USF.COMPS:SHP:1,2015-07-01T07:54:00Z,30.0600,-84.2910,10.0,3.47,257.23,4.11,'1111122,1111122,1111122' 
COMPS,ioos:station:USF.COMPS:SHP:1,2015-07-01T08:00:00Z,30.0600,-84.2910,10.0,3.5,253.43,4.01,'1111122,1111122,1111122' 
COMPS,ioos:station:USF.COMPS:SHP:1,2015-07-01T08:06:00Z,30.0600,-84.2910,10.0,3.28,253.43,3.92,'1111122,1111122,1111122' 
COMPS,ioos:station:USF.COMPS:SHP:1,2015-07-01T08:12:00Z,30.0600,-84.2910,10.0,3.29,247.18,4.11,'1111122,1111122,1111122' 
COMPS,ioos:station:USF.COMPS:SHP:1,2015-07-01T08:18:00Z,30.0600,-84.2910,10.0,3.39,253.01,4.21,'1111122,1111122,1111122' 
COMPS,ioos:station:USF.COMPS:SHP:1,2015-07-01T08:24:00Z,30.0600,-84.2910,10.0,3.26,261.57,4.01,'1111122,1111122,1111122' 
COMPS,ioos:station:USF.COMPS:SHP:1,2015-07-01T08:30:00Z,30.0600,-84.2910,10.0,2.91,260.46,3.52,'1111122,1111122,1111122' 
COMPS,ioos:station:USF.COMPS:SHP:1,2015-07-01T08:36:00Z,30.0600,-84.2910,10.0,2.51,264.07,3.43,'1111122,1111122,1111122' 
COMPS,ioos:station:USF.COMPS:SHP:1,2015-07-01T08:42:00Z,30.0600,-84.2910,10.0,2.57,260.78,3.23,'1111122,1111122,1111122' 
COMPS,ioos:station:USF.COMPS:SHP:1,2015-07-01T08:48:00Z,30.0600,-84.2910,10.0,2.63,258.78,3.13,'1111122,1111122,1111122' 
COMPS,ioos:station:USF.COMPS:SHP:1,2015-07-01T08:54:00Z,30.0600,-84.2910,10.0,2.48,268.59,3.23,'1111122,1111122,1111122' 
COMPS,ioos:station:USF.COMPS:SHP:1,2015-07-01T09:00:00Z,30.0600,-84.2910,10.0,2.5,271.09,3.23,'1111122,1111122,1111122' 
COMPS,ioos:station:USF.COMPS:SHP:1,2015-07-01T09:06:00Z,30.0600,-84.2910,10.0,2.88,265.48,3.43,'1111122,1111122,1111122' 
COMPS,ioos:station:USF.COMPS:SHP:1,2015-07-01T09:12:00Z,30.0600,-84.2910,10.0,3.15,265.53,4.31,'1111122,1111122,1111122' 
COMPS,ioos:station:USF.COMPS:SHP:1,2015-07-01T09:18:00Z,30.0600,-84.2910,10.0,3.37,264.44,4.41,'1111122,1111122,1111122' 
COMPS,ioos:station:USF.COMPS:SHP:1,2015-07-01T09:24:00Z,30.0600,-84.2910,10.0,3.44,269.43,4.31,'1111122,1111122,1111122' 
COMPS,ioos:station:USF.COMPS:SHP:1,2015-07-01T09:30:00Z,30.0600,-84.2910,10.0,3.59,266.52,4.6,'1111122,1111122,1111122' 
COMPS,ioos:station:USF.COMPS:SHP:1,2015-07-01T09:36:00Z,30.0600,-84.2910,10.0,3.38,269.39,4.6,'1111122,1111122,1111122' 
COMPS,ioos:station:USF.COMPS:SHP:1,2015-07-01T09:42:00Z,30.0600,-84.2910,10.0,3.62,268.38,4.6,'1111122,1111122,1111122' 
COMPS,ioos:station:USF.COMPS:SHP:1,2015-07-01T09:48:00Z,30.0600,-84.2910,10.0,4.32,261.58,5.58,'1111122,1111122,1111122' 
COMPS,ioos:station:USF.COMPS:SHP:1,2015-07-01T09:54:00Z,30.0600,-84.2910,10.0,5.05,257.34,5.68,'1111122,1111122,1111122' 
COMPS,ioos:station:USF.COMPS:SHP:1,2015-07-01T10:00:00Z,30.0600,-84.2910,10.0,4.56,260.51,5.39,'1111122,1111122,1111122' 
COMPS,ioos:station:USF.COMPS:SHP:1,2015-07-01T10:06:00Z,30.0600,-84.2910,10.0,4.77,264.65,5.48,'1111122,1111122,1111122' 
COMPS,ioos:station:USF.COMPS:SHP:1,2015-07-01T10:12:00Z,30.0600,-84.2910,10.0,4.12,269.49,5.19,'1111122,1111122,1111122' 
COMPS,ioos:station:USF.COMPS:SHP:1,2015-07-01T10:18:00Z,30.0600,-84.2910,10.0,3.7,273.31,4.8,'1111122,1111122,1111122' 
COMPS,ioos:station:USF.COMPS:SHP:1,2015-07-01T10:24:00Z,30.0600,-84.2910,10.0,3.26,276.45,4.41,'1111122,1111122,1111122' 
COMPS,ioos:station:USF.COMPS:SHP:1,2015-07-01T10:30:00Z,30.0600,-84.2910,10.0,3.24,276.05,4.6,'1111122,1111122,1111122' 
COMPS,ioos:station:USF.COMPS:SHP:1,2015-07-01T10:36:00Z,30.0600,-84.2910,10.0,3.53,273.6,4.31,'1111122,1111122,1111122' 
COMPS,ioos:station:USF.COMPS:SHP:1,2015-07-01T10:42:00Z,30.0600,-84.2910,10.0,3.15,272.03,4.21,'1111122,1111122,1111122' 
COMPS,ioos:station:USF.COMPS:SHP:1,2015-07-01T10:48:00Z,30.0600,-84.2910,10.0,3.28,266.99,4.11,'1111122,1111122,1111122' 
COMPS,ioos:station:USF.COMPS:SHP:1,2015-07-01T10:54:00Z,30.0600,-84.2910,10.0,3.75,258.5,4.9,'1111122,1111122,1111122' 
COMPS,ioos:station:USF.COMPS:SHP:1,2015-07-01T11:00:00Z,30.0600,-84.2910,10.0,4.12,255.53,4.99,'1111122,1111122,1111122' 
COMPS,ioos:station:USF.COMPS:SHP:1,2015-07-01T11:06:00Z,30.0600,-84.2910,10.0,4.27,254.31,4.8,'1111122,1111122,1111122' 
COMPS,ioos:station:USF.COMPS:SHP:1,2015-07-01T11:12:00Z,30.0600,-84.2910,10.0,4.25,251.12,5.19,'1111122,1111122,1111122' 
COMPS,ioos:station:USF.COMPS:SHP:1,2015-07-01T11:18:00Z,30.0600,-84.2910,10.0,4.42,248.72,5.19,'1111122,1111122,1111122' 
COMPS,ioos:station:USF.COMPS:SHP:1,2015-07-01T11:24:00Z,30.0600,-84.2910,10.0,4.73,251.0,5.87,'1111122,1111122,1111122' 
COMPS,ioos:station:USF.COMPS:SHP:1,2015-07-01T11:30:00Z,30.0600,-84.2910,10.0,4.82,254.33,5.48,'1111122,1111122,1111122' 
COMPS,ioos:station:USF.COMPS:SHP:1,2015-07-01T11:36:00Z,30.0600,-84.2910,10.0,4.73,253.82,5.48,'1111122,1111122,1111122' 
COMPS,ioos:station:USF.COMPS:SHP:1,2015-07-01T11:42:00Z,30.0600,-84.2910,10.0,4.4,252.57,5.29,'1111122,1111122,1111122' 
COMPS,ioos:station:USF.COMPS:SHP:1,2015-07-01T11:48:00Z,30.0600,-84.2910,10.0,4.69,248.55,5.48,'1111122,1111122,1111122' 
COMPS,ioos:station:USF.COMPS:SHP:1,2015-07-01T11:54:00Z,30.0600,-84.2910,10.0,4.87,248.11,5.78,'1111122,1111122,1111122' 
COMPS,ioos:station:USF.COMPS:SHP:1,2015-07-01T12:00:00Z,30.0600,-84.2910,10.0,4.73,245.76,6.07,'1111122,1111122,1111122' 
COMPS,ioos:station:USF.COMPS:SHP:1,2015-07-01T12:06:00Z,30.0600,-84.2910,10.0,4.84,242.87,5.68,'1111122,1111122,1111122' 
COMPS,ioos:station:USF.COMPS:SHP:1,2015-07-01T12:12:00Z,30.0600,-84.2910,10.0,5.36,246.83,6.07,'1111122,1111122,1111122' 
COMPS,ioos:station:USF.COMPS:SHP:1,2015-07-01T12:18:00Z,30.0600,-84.2910,10.0,5.15,250.23,5.78,'1111122,1111122,1111122' 
COMPS,ioos:station:USF.COMPS:SHP:1,2015-07-01T12:24:00Z,30.0600,-84.2910,10.0,4.61,245.42,5.87,'1111122,1111122,1111122' 
COMPS,ioos:station:USF.COMPS:SHP:1,2015-07-01T12:30:00Z,30.0600,-84.2910,10.0,4.35,238.32,5.29,'1111122,1111122,1111122' 
COMPS,ioos:station:USF.COMPS:SHP:1,2015-07-01T12:36:00Z,30.0600,-84.2910,10.0,4.92,249.0,5.68,'1111122,1111122,1111122' 
COMPS,ioos:station:USF.COMPS:SHP:1,2015-07-01T12:42:00Z,30.0600,-84.2910,10.0,4.1,251.56,5.29,'1111122,1111122,1111122' 
COMPS,ioos:station:USF.COMPS:SHP:1,2015-07-01T12:48:00Z,30.0600,-84.2910,10.0,3.32,243.86,3.92,'1111122,1111122,1111122' 
COMPS,ioos:station:USF.COMPS:SHP:1,2015-07-01T12:54:00Z,30.0600,-84.2910,10.0,3.85,228.52,4.6,'1111122,1111122,1111122' 
COMPS,ioos:station:USF.COMPS:SHP:1,2015-07-01T13:00:00Z,30.0600,-84.2910,10.0,3.89,226.58,4.9,'1111122,1111122,1111122' 
COMPS,ioos:station:USF.COMPS:SHP:1,2015-07-01T13:06:00Z,30.0600,-84.2910,10.0,3.77,241.65,4.6,'1111122,1111122,1111122' 
COMPS,ioos:station:USF.COMPS:SHP:1,2015-07-01T13:12:00Z,30.0600,-84.2910,10.0,3.63,241.3,4.31,'1111122,1111122,1111122' 
COMPS,ioos:station:USF.COMPS:SHP:1,2015-07-01T13:18:00Z,30.0600,-84.2910,10.0,3.91,232.94,5.09,'1111122,1111122,1111122' 
COMPS,ioos:station:USF.COMPS:SHP:1,2015-07-01T13:24:00Z,30.0600,-84.2910,10.0,4.08,234.61,4.99,'1111122,1111122,1111122' 
COMPS,ioos:station:USF.COMPS:SHP:1,2015-07-01T13:30:00Z,30.0600,-84.2910,10.0,3.29,234.8,4.11,'1111122,1111122,1111122' 
COMPS,ioos:station:USF.COMPS:SHP:1,2015-07-01T13:36:00Z,30.0600,-84.2910,10.0,3.47,240.18,4.21,'1111122,1111122,1111122' 
COMPS,ioos:station:USF.COMPS:SHP:1,2015-07-01T13:42:00Z,30.0600,-84.2910,10.0,3.51,257.61,4.31,'1111122,1111122,1111122' 
COMPS,ioos:station:USF.COMPS:SHP:1,2015-07-01T13:48:00Z,30.0600,-84.2910,10.0,3.01,302.05,4.21,'1111122,1111122,1111122' 
COMPS,ioos:station:USF.COMPS:SHP:1,2015-07-01T13:54:00Z,30.0600,-84.2910,10.0,2.71,326.08,4.01,'1111122,1111122,1111122' 
COMPS,ioos:station:USF.COMPS:SHP:1,2015-07-01T14:00:00Z,30.0600,-84.2910,10.0,3.01,325.6,4.41,'1111122,1111122,1111122' 
COMPS,ioos:station:USF.COMPS:SHP:1,2015-07-01T14:06:00Z,30.0600,-84.2910,10.0,2.88,333.18,4.11,'1111122,1111122,1111122' 
COMPS,ioos:station:USF.COMPS:SHP:1,2015-07-01T14:12:00Z,30.0600,-84.2910,10.0,2.34,334.54,2.94,'1111122,1111122,1111122' 
COMPS,ioos:station:USF.COMPS:SHP:1,2015-07-01T14:18:00Z,30.0600,-84.2910,10.0,2.33,341.54,3.03,'1111122,1111122,1111122' 
COMPS,ioos:station:USF.COMPS:SHP:1,2015-07-01T14:24:00Z,30.0600,-84.2910,10.0,2.25,338.51,2.74,'1111122,1111122,1111122' 
COMPS,ioos:station:USF.COMPS:SHP:1,2015-07-01T14:30:00Z,30.0600,-84.2910,10.0,2.38,341.85,3.03,'1111122,1111122,1111122' 
COMPS,ioos:station:USF.COMPS:SHP:1,2015-07-01T14:36:00Z,30.0600,-84.2910,10.0,1.85,340.5,2.84,'1111122,1111122,1111122' 
COMPS,ioos:station:USF.COMPS:SHP:1,2015-07-01T14:42:00Z,30.0600,-84.2910,10.0,2.48,328.13,3.43,'1111122,1111122,1111122' 
COMPS,ioos:station:USF.COMPS:SHP:1,2015-07-01T14:48:00Z,30.0600,-84.2910,10.0,2.08,326.55,2.94,'1111122,1111122,1111122' 
COMPS,ioos:station:USF.COMPS:SHP:1,2015-07-01T14:54:00Z,30.0600,-84.2910,10.0,2.13,330.69,3.52,'1111122,1111122,1111122' 
COMPS,ioos:station:USF.COMPS:SHP:1,2015-07-01T15:00:00Z,30.0600,-84.2910,10.0,2.35,326.91,3.23,'1111122,1111122,1111122' 
COMPS,ioos:station:USF.COMPS:SHP:1,2015-07-01T15:06:00Z,30.0600,-84.2910,10.0,2.66,303.41,4.21,'1111122,1111122,1111122' 
COMPS,ioos:station:USF.COMPS:SHP:1,2015-07-01T15:12:00Z,30.0600,-84.2910,10.0,2.23,301.42,3.23,'1111122,1111122,1111122' 
COMPS,ioos:station:USF.COMPS:SHP:1,2015-07-01T15:18:00Z,30.0600,-84.2910,10.0,2.14,291.55,3.62,'1111122,1111122,1111122' 
COMPS,ioos:station:USF.COMPS:SHP:1,2015-07-01T15:24:00Z,30.0600,-84.2910,10.0,2.06,285.9,2.84,'1111122,1111122,1111122' 
COMPS,ioos:station:USF.COMPS:SHP:1,2015-07-01T15:30:00Z,30.0600,-84.2910,10.0,2.15,288.63,3.43,'1111122,1111122,1111122' 
COMPS,ioos:station:USF.COMPS:SHP:1,2015-07-01T15:36:00Z,30.0600,-84.2910,10.0,2.0,269.96,2.94,'1111122,1111122,1111122' 
COMPS,ioos:station:USF.COMPS:SHP:1,2015-07-01T15:42:00Z,30.0600,-84.2910,10.0,2.19,274.97,2.94,'1111122,1111122,1111122' 
COMPS,ioos:station:USF.COMPS:SHP:1,2015-07-01T15:48:00Z,30.0600,-84.2910,10.0,2.68,260.46,3.62,'1111122,1111122,1111122' 
COMPS,ioos:station:USF.COMPS:SHP:1,2015-07-01T15:54:00Z,30.0600,-84.2910,10.0,2.01,272.44,3.03,'1111122,1111122,1111122' 
COMPS,ioos:station:USF.COMPS:SHP:1,2015-07-01T16:00:00Z,30.0600,-84.2910,10.0,1.87,258.46,2.64,'1111122,1111122,1111122' 
COMPS,ioos:station:USF.COMPS:SHP:1,2015-07-01T16:06:00Z,30.0600,-84.2910,10.0,2.36,260.52,3.72,'1111122,1111122,1111122' 
COMPS,ioos:station:USF.COMPS:SHP:1,2015-07-01T16:12:00Z,30.0600,-84.2910,10.0,3.0,258.31,3.92,'1111122,1111122,1111122' 
COMPS,ioos:station:USF.COMPS:SHP:1,2015-07-01T16:18:00Z,30.0600,-84.2910,10.0,2.55,259.88,3.52,'1111122,1111122,1111122' 
COMPS,ioos:station:USF.COMPS:SHP:1,2015-07-01T16:24:00Z,30.0600,-84.2910,10.0,2.77,273.85,3.43,'1111122,1111122,1111122' 
COMPS,ioos:station:USF.COMPS:SHP:1,2015-07-01T16:30:00Z,30.0600,-84.2910,10.0,2.33,273.48,3.43,'1111122,1111122,1111122' 
COMPS,ioos:station:USF.COMPS:SHP:1,2015-07-01T16:36:00Z,30.0600,-84.2910,10.0,2.35,267.48,3.33,'1111122,1111122,1111122' 
COMPS,ioos:station:USF.COMPS:SHP:1,2015-07-01T16:42:00Z,30.0600,-84.2910,10.0,2.21,262.67,3.13,'1111122,1111122,1111122' 
COMPS,ioos:station:USF.COMPS:SHP:1,2015-07-01T16:48:00Z,30.0600,-84.2910,10.0,2.06,254.76,2.84,'1111122,1111122,1111122' 
COMPS,ioos:station:USF.COMPS:SHP:1,2015-07-01T16:54:00Z,30.0600,-84.2910,10.0,2.35,252.04,3.23,'1111122,1111122,1111122' 
COMPS,ioos:station:USF.COMPS:SHP:1,2015-07-01T17:00:00Z,30.0600,-84.2910,10.0,2.53,237.98,3.82,'1111122,1111122,1111122' 
COMPS,ioos:station:USF.COMPS:SHP:1,2015-07-01T17:06:00Z,30.0600,-84.2910,10.0,2.87,250.7,4.5,'1111122,1111122,1111122' 
COMPS,ioos:station:USF.COMPS:SHP:1,2015-07-01T17:12:00Z,30.0600,-84.2910,10.0,2.49,250.81,3.23,'1111122,1111122,1111122' 
COMPS,ioos:station:USF.COMPS:SHP:1,2015-07-01T17:18:00Z,30.0600,-84.2910,10.0,2.21,240.39,3.03,'1111122,1111122,1111122' 
COMPS,ioos:station:USF.COMPS:SHP:1,2015-07-01T17:24:00Z,30.0600,-84.2910,10.0,1.81,230.31,2.94,'1111122,1111122,1111122' 
COMPS,ioos:station:USF.COMPS:SHP:1,2015-07-01T17:30:00Z,30.0600,-84.2910,10.0,2.24,233.27,3.13,'1111122,1111122,1111122' 
COMPS,ioos:station:USF.COMPS:SHP:1,2015-07-01T17:36:00Z,30.0600,-84.2910,10.0,1.69,217.12,2.54,'1111122,1111122,1111122' 
COMPS,ioos:station:USF.COMPS:SHP:1,2015-07-01T17:42:00Z,30.0600,-84.2910,10.0,1.45,221.07,2.45,'1111122,1111122,1111122' 
COMPS,ioos:station:USF.COMPS:SHP:1,2015-07-01T17:48:00Z,30.0600,-84.2910,10.0,1.39,234.81,2.05,'1111122,1111122,1111122' 
COMPS,ioos:station:USF.COMPS:SHP:1,2015-07-01T17:54:00Z,30.0600,-84.2910,10.0,1.39,233.65,2.54,'1111122,1111122,1111122' 
COMPS,ioos:station:USF.COMPS:SHP:1,2015-07-01T18:00:00Z,30.0600,-84.2910,10.0,2.0,227.75,3.13,'1111122,1111122,1111122' 
COMPS,ioos:station:USF.COMPS:SHP:1,2015-07-01T18:06:00Z,30.0600,-84.2910,10.0,2.4,176.56,3.43,'1111122,1111122,1111122' 
COMPS,ioos:station:USF.COMPS:SHP:1,2015-07-01T18:12:00Z,30.0600,-84.2910,10.0,4.85,149.15,6.76,'1111122,1111122,1111122' 
COMPS,ioos:station:USF.COMPS:SHP:1,2015-07-01T18:18:00Z,30.0600,-84.2910,10.0,7.46,143.58,8.91,'1111122,1111122,1111122' 
COMPS,ioos:station:USF.COMPS:SHP:1,2015-07-01T18:24:00Z,30.0600,-84.2910,10.0,5.65,153.07,7.35,'1111122,1111122,1111122' 
COMPS,ioos:station:USF.COMPS:SHP:1,2015-07-01T18:30:00Z,30.0600,-84.2910,10.0,5.22,155.08,5.87,'1111122,1111122,1111122' 
COMPS,ioos:station:USF.COMPS:SHP:1,2015-07-01T18:36:00Z,30.0600,-84.2910,10.0,4.11,162.02,5.58,'1111122,1111122,1111122' 
COMPS,ioos:station:USF.COMPS:SHP:1,2015-07-01T18:42:00Z,30.0600,-84.2910,10.0,4.91,182.91,6.95,'1111122,1111122,1111122' 
COMPS,ioos:station:USF.COMPS:SHP:1,2015-07-01T18:48:00Z,30.0600,-84.2910,10.0,4.35,181.68,5.87,'1111122,1111122,1111122' 
COMPS,ioos:station:USF.COMPS:SHP:1,2015-07-01T18:54:00Z,30.0600,-84.2910,10.0,3.12,181.28,5.29,'1111122,1111122,1111122' 
COMPS,ioos:station:USF.COMPS:SHP:1,2015-07-01T19:00:00Z,30.0600,-84.2910,10.0,4.54,183.06,6.07,'1111122,1111122,1111122' 
COMPS,ioos:station:USF.COMPS:SHP:1,2015-07-01T19:06:00Z,30.0600,-84.2910,10.0,4.53,192.11,5.97,'1111122,1111122,1111122' 
COMPS,ioos:station:USF.COMPS:SHP:1,2015-07-01T19:12:00Z,30.0600,-84.2910,10.0,4.55,189.65,6.27,'1111122,1111122,1111122' 
COMPS,ioos:station:USF.COMPS:SHP:1,2015-07-01T19:18:00Z,30.0600,-84.2910,10.0,4.88,183.45,6.56,'1111122,1111122,1111122' 
COMPS,ioos:station:USF.COMPS:SHP:1,2015-07-01T19:24:00Z,30.0600,-84.2910,10.0,5.67,187.98,7.25,'1111122,1111122,1111122' 
COMPS,ioos:station:USF.COMPS:SHP:1,2015-07-01T19:30:00Z,30.0600,-84.2910,10.0,4.9,187.47,6.46,'1111122,1111122,1111122' 
COMPS,ioos:station:USF.COMPS:SHP:1,2015-07-01T19:36:00Z,30.0600,-84.2910,10.0,6.23,193.28,7.74,'1111122,1111122,1111122' 
COMPS,ioos:station:USF.COMPS:SHP:1,2015-07-01T19:42:00Z,30.0600,-84.2910,10.0,6.67,199.58,7.64,'1111122,1111122,1111122' 
COMPS,ioos:station:USF.COMPS:SHP:1,2015-07-01T19:48:00Z,30.0600,-84.2910,10.0,5.42,217.71,9.11,'1111122,1111122,1111122' 
COMPS,ioos:station:USF.COMPS:SHP:1,2015-07-01T19:54:00Z,30.0600,-84.2910,10.0,4.28,194.36,6.17,'1111122,1111122,1111122' 
COMPS,ioos:station:USF.COMPS:SHP:1,2015-07-01T20:00:00Z,30.0600,-84.2910,10.0,5.4,200.6,7.35,'1111122,1111122,1111122' 
COMPS,ioos:station:USF.COMPS:SHP:1,2015-07-01T20:06:00Z,30.0600,-84.2910,10.0,6.54,204.59,7.74,'1111122,1111122,1111122' 
COMPS,ioos:station:USF.COMPS:SHP:1,2015-07-01T20:12:00Z,30.0600,-84.2910,10.0,5.8,192.41,7.64,'1111122,1111122,1111122' 
COMPS,ioos:station:USF.COMPS:SHP:1,2015-07-01T20:18:00Z,30.0600,-84.2910,10.0,6.58,195.78,7.64,'1111122,1111122,1111122' 
COMPS,ioos:station:USF.COMPS:SHP:1,2015-07-01T20:24:00Z,30.0600,-84.2910,10.0,6.97,209.21,8.33,'1111122,1111122,1111122' 
COMPS,ioos:station:USF.COMPS:SHP:1,2015-07-01T20:30:00Z,30.0600,-84.2910,10.0,7.6,207.78,9.01,'1111122,1111122,1111122' 
COMPS,ioos:station:USF.COMPS:SHP:1,2015-07-01T20:36:00Z,30.0600,-84.2910,10.0,6.89,225.3,8.03,'1111122,1111122,1111122' 
COMPS,ioos:station:USF.COMPS:SHP:1,2015-07-01T20:42:00Z,30.0600,-84.2910,10.0,6.64,222.86,7.54,'1111122,1111122,1111122' 
COMPS,ioos:station:USF.COMPS:SHP:1,2015-07-01T20:48:00Z,30.0600,-84.2910,10.0,6.99,226.7,8.42,'1111122,1111122,1111122' 
COMPS,ioos:station:USF.COMPS:SHP:1,2015-07-01T20:54:00Z,30.0600,-84.2910,10.0,6.41,234.85,8.03,'1111122,1111122,1111122' 
COMPS,ioos:station:USF.COMPS:SHP:1,2015-07-01T21:00:00Z,30.0600,-84.2910,10.0,5.59,231.64,7.64,'1111122,1111122,1111122' 
COMPS,ioos:station:USF.COMPS:SHP:1,2015-07-01T21:06:00Z,30.0600,-84.2910,10.0,5.62,226.21,6.85,'1111122,1111122,1111122' 
COMPS,ioos:station:USF.COMPS:SHP:1,2015-07-01T21:12:00Z,30.0600,-84.2910,10.0,5.46,229.68,6.76,'1111122,1111122,1111122' 
COMPS,ioos:station:USF.COMPS:SHP:1,2015-07-01T21:18:00Z,30.0600,-84.2910,10.0,5.82,224.2,7.25,'1111122,1111122,1111122' 
COMPS,ioos:station:USF.COMPS:SHP:1,2015-07-01T21:24:00Z,30.0600,-84.2910,10.0,5.86,221.47,6.76,'1111122,1111122,1111122' 
COMPS,ioos:station:USF.COMPS:SHP:1,2015-07-01T21:30:00Z,30.0600,-84.2910,10.0,5.42,217.55,6.37,'1111122,1111122,1111122' 
COMPS,ioos:station:USF.COMPS:SHP:1,2015-07-01T21:36:00Z,30.0600,-84.2910,10.0,5.64,227.99,6.46,'1111122,1111122,1111122' 
COMPS,ioos:station:USF.COMPS:SHP:1,2015-07-01T21:42:00Z,30.0600,-84.2910,10.0,4.7,225.22,5.58,'1111122,1111122,1111122' 
COMPS,ioos:station:USF.COMPS:SHP:1,2015-07-01T21:48:00Z,30.0600,-84.2910,10.0,6.63,220.22,8.42,'1111122,1111122,1111122' 
COMPS,ioos:station:USF.COMPS:SHP:1,2015-07-01T21:54:00Z,30.0600,-84.2910,10.0,7.66,219.11,8.72,'1111122,1111122,1111122' 
COMPS,ioos:station:USF.COMPS:SHP:1,2015-07-01T22:00:00Z,30.0600,-84.2910,10.0,7.03,217.68,8.91,'1111122,1111122,1111122' 
COMPS,ioos:station:USF.COMPS:SHP:1,2015-07-01T22:06:00Z,30.0600,-84.2910,10.0,7.04,222.37,8.52,'1111122,1111122,1111122' 
COMPS,ioos:station:USF.COMPS:SHP:1,2015-07-01T22:12:00Z,30.0600,-84.2910,10.0,6.19,239.59,7.44,'1111122,1111122,1111122' 
COMPS,ioos:station:USF.COMPS:SHP:1,2015-07-01T22:18:00Z,30.0600,-84.2910,10.0,5.58,255.45,6.85,'1111122,1111122,1111122' 
COMPS,ioos:station:USF.COMPS:SHP:1,2015-07-01T22:24:00Z,30.0600,-84.2910,10.0,5.23,252.39,6.95,'1111122,1111122,1111122' 
COMPS,ioos:station:USF.COMPS:SHP:1,2015-07-01T22:30:00Z,30.0600,-84.2910,10.0,5.04,233.77,5.87,'1111122,1111122,1111122' 